Shungnak AP, Shungnak, AK, AK

4:20 PM AKST on November 20, 2019 (GMT -0900)
Shungnak AP, Shungnak, AK

Weather History for PAGH - September, 2019

Change the Weather History Date:

Friday, September 20, 2019

  Actual Average (WUND) Record (WUND)
Temperature  
Mean Temperature 35 °F -  
Max Temperature 46 °F - - (-1)
Min Temperature 24 °F - - (-1)
Degree Days  
Heating Degree Days 30    
Moisture  
Dew Point 27 °F    
Average Humidity 81    
Maximum Humidity 100    
Minimum Humidity 49    
Precipitation  
Precipitation 0.00 in - - ()
Sea Level Pressure  
Sea Level Pressure 29.52 in    
Wind  
Wind Speed 5 mph (West)    
Max Wind Speed 12 mph    
Max Gust Speed -    
Visibility 9 miles    
Events Fog    
Averages and records for this station are not official NWS values.
T = Trace of Precipitation, MM = Missing Value Source: NWS Daily Summary

Daily Weather History Graph

Daily Weather History Graph

Search for Another Location

Airport or City:

Astronomy

Sep. 20, 2019 Rise Set
Actual Time 8:03 AM AKDT 8:38 PM AKDT
Civil Twilight 7:10 AM AKDT 9:31 PM AKDT
Nautical Twilight 6:02 AM AKDT 10:38 PM AKDT
Astronomical Twilight 4:37 AM AKDT 12:01 AM AKDT
Moon 9:30 PM AKDT (9/20) 5:22 PM AKDT (9/20)
Length of Visible Light 14h 21m
Length of Day
12h 34m
Waning Gibbous, 63% of the Moon is Illuminated
Sep 20
Waning Gibbous
Sep 21
Last Quarter
Sep 28
New
Oct 5
First Quarter
Oct 13
Full

Hourly Weather History & Observations

Time (AKDT) Temp. Windchill Dew Point Humidity Pressure Visibility Wind Dir Wind Speed Gust Speed Precip Events Conditions
12:56 AM 30.9 °F 25.2 °F 28.0 °F 89% 29.66 in 10.0 mi ESE 5.8 mph - N/A   Clear
1:56 AM 30.0 °F 23.2 °F 28.0 °F 92% 29.65 in 10.0 mi ESE 6.9 mph - N/A   Clear
2:56 AM 30.0 °F 23.2 °F 28.0 °F 92% 29.64 in 10.0 mi SE 6.9 mph - N/A   Clear
3:56 AM 28.9 °F 23.9 °F 27.0 °F 92% 29.64 in 10.0 mi East 4.6 mph - N/A   Clear
4:56 AM 27.0 °F 20.5 °F 25.0 °F 92% 29.62 in 10.0 mi East 5.8 mph - N/A   Clear
5:56 AM 25.0 °F - 24.1 °F 96% 29.61 in 10.0 mi Calm Calm - N/A   Clear
6:56 AM 26.1 °F 21.9 °F 25.0 °F 96% 29.59 in 10.0 mi SE 3.5 mph - N/A   Clear
7:53 AM 26.6 °F - 24.8 °F 93% 29.56 in 1.0 mi Calm Calm - N/A   Clear
7:56 AM 25.0 °F - 24.1 °F 96% 29.57 in 0.5 mi Calm Calm - N/A Fog Light Freezing Fog
8:17 AM 24.8 °F - 23.0 °F 93% 29.55 in 1.0 mi Calm Calm - N/A   Clear
8:19 AM 24.8 °F 20.5 °F 23.0 °F 93% 29.55 in 2.0 mi NW 3.5 mph - N/A   Clear
8:26 AM 24.8 °F - 24.8 °F 100% 29.55 in 10.0 mi Calm Calm - N/A   Clear
8:56 AM 26.1 °F - 25.0 °F 96% 29.57 in 10.0 mi Calm Calm - N/A   Partly Cloudy
9:56 AM 26.1 °F 19.4 °F 25.0 °F 96% 29.56 in 10.0 mi WNW 5.8 mph - N/A   Clear
10:56 AM 30.0 °F 26.5 °F 28.9 °F 96% 29.55 in 10.0 mi SW 3.5 mph - N/A   Clear
11:10 AM 30.2 °F 25.4 °F 30.2 °F 100% 29.52 in 10.0 mi SW 4.6 mph - N/A   Partly Cloudy
11:56 AM 34.0 °F 28.8 °F 30.9 °F 89% 29.53 in 10.0 mi WSW 5.8 mph - N/A   Clear
12:56 PM 36.0 °F 31.1 °F 30.0 °F 79% 29.51 in 10.0 mi West 5.8 mph - N/A   Clear
1:56 PM 39.9 °F 35.1 °F 30.0 °F 68% 29.49 in 10.0 mi West 6.9 mph - N/A   Clear
2:56 PM 43.0 °F 37.7 °F 30.9 °F 62% 29.47 in 10.0 mi West 9.2 mph - N/A   Clear
3:56 PM 45.0 °F 39.7 °F 28.9 °F 53% 29.45 in 10.0 mi WNW 10.4 mph - N/A   Clear
4:56 PM 45.0 °F 39.3 °F 27.0 °F 49% 29.43 in 10.0 mi WNW 11.5 mph - N/A   Clear
5:56 PM 46.0 °F 41.0 °F 28.9 °F 51% 29.42 in 10.0 mi WNW 10.4 mph - N/A   Clear
6:56 PM 46.0 °F 41.4 °F 28.9 °F 51% 29.40 in 10.0 mi West 9.2 mph - N/A   Partly Cloudy
7:56 PM 44.1 °F 39.5 °F 28.9 °F 55% 29.40 in 10.0 mi West 8.1 mph - N/A   Partly Cloudy
8:56 PM 41.0 °F 35.2 °F 28.9 °F 62% 29.39 in 10.0 mi West 9.2 mph - N/A   Clear
9:56 PM 37.0 °F 30.4 °F 27.0 °F 67% 29.40 in 10.0 mi West 9.2 mph - N/A   Clear
10:56 PM 35.1 °F 27.4 °F 27.0 °F 72% 29.40 in 10.0 mi West 10.4 mph - N/A   Clear
11:56 PM 34.0 °F 26.0 °F 27.0 °F 75% 29.40 in 10.0 mi West 10.4 mph - N/A   Clear